Regional Weather Roundup
Issued by NWS

Home | Current Version | Previous Version | Graphics & Text | Print | Product List | Glossary On
Versions: 1 2 3 4 5 6 7 8 9 10 11 12 13 14 15 16 17 18 19 20 21 22 23 24 25 26 27 28 29 30 31 32 33 34 35 36 37 38 39 40 41 42 43 44 45 46 47 48 49 50
000
ASUS45 KCYS 270410
RWRWY

WYOMING REGIONAL WEATHER ROUNDUP
NATIONAL WEATHER SERVICE CHEYENNE WY
900 PM MST MON JAN 26 2015

NOTE:  "FAIR" INDICATES FEW OR NO CLOUDS BELOW 12,000 FEET
WITH NO SIGNIFICANT WEATHER AND/OR OBSTRUCTIONS TO VISIBILITY.

WYZ001-270500-
YELLOWSTONE NATIONAL PARK

CITY           SKY/WX    TMP DP  RH WIND       PRES   REMARKS
LK YELLOWSTONE   N/A     18  16  92 CALM      30.33S
W YELLOWSTONE  NOT AVBL

$$
WYZ002>013-054>058-071-098>099-270500-
NORTHERN WYOMING

CITY           SKY/WX    TMP DP  RH WIND       PRES   REMARKS
JACKSON        FAIR      16  14  93 N10       30.32S WCI   3
CODY           FAIR      34  28  80 CALM      30.13R
GREYBULL       FAIR      25  23  92 SW5       30.14S WCI  19
WORLAND        FAIR      24  22  91 CALM      30.13F
SHERIDAN       FAIR      46  26  45 W6        30.00F
BUFFALO        FAIR      55  22  27 W5        30.06F
GILLETTE       FAIR      50  28  42 SW17      30.03S
HULETT           N/A    N/A N/A N/A MISG        N/A
NEWCASTLE      FAIR      36  30  80 N6        30.07S WCI  31

$$
WYZ014>020-022>026-101>103-270500-
CENTRAL WYOMING

CITY           SKY/WX    TMP DP  RH WIND       PRES   REMARKS
BIG PINEY      FAIR      21  18  88 E3        30.31F
PINEDALE       CLOUDY    21  19  93 W6        30.33S WCI  14
DUBOIS         FAIR      37  23  56 W13       30.24S WCI  29
LANDER         FAIR      34  27  75 W7        30.19F WCI  28
RIVERTON       FAIR      33  27  78 W6        30.21S WCI  28
CASPER         FAIR      42  26  53 SW7       30.18S
DOUGLAS        FAIR      40  27  59 NW8       30.14F WCI  34

$$
WYZ021-027>030-104>119-270500-
SOUTHERN WYOMING

CITY           SKY/WX    TMP DP  RH WIND       PRES   REMARKS
EVANSTON       FAIR      35  27  72 E7        30.29S WCI  29
KEMMERER       FAIR      34  28  80 N9        30.30F WCI  26
FORT BRIDGER   FAIR      40  32  73 N3        30.32S
ROCK SPRINGS   FAIR      36  25  64 S12       30.29S WCI  28
DIXON          FAIR      31  26  80 CALM      30.35S
RAWLINS        FAIR      28  23  81 CALM      30.30F
SARATOGA       FAIR      34  27  75 S7        30.31F WCI  28
LARAMIE        FAIR      29  24  82 S10       30.29F WCI  20
CHEYENNE       FAIR      41  22  46 SW9       30.23S
TORRINGTON     FAIR      39  26  59 NW5       30.11F
PINE BLUFFS    FAIR      32  25  74 CALM      30.19F

$$



USA.gov is the U.S. government's official web portal to all federal, state and local government web resources and services.